This is the latest recevied weather packets stored in our database for station/object OK1PMP-6. If no packets are shown the sender has not sent any weather packets the latest 10 day(s).
| Time | Temp. | Humidity | Pressure | Rain* | Wind** | Luminosity | Snow |
|---|---|---|---|---|---|---|---|
| 1777641958 | 23.89° C | 28% | 1029.6 hPa | 0 mm | - | 524 W/m² | - |
| 1777641054 | 23.33° C | 29% | 1029.9 hPa | 0 mm | - | 567 W/m² | - |
| 1777640153 | 22.78° C | 29% | 1029.9 hPa | 0 mm | - | 586 W/m² | - |
| 1777639252 | 22.78° C | 29% | 1030.2 hPa | 0 mm | - | 613 W/m² | - |
| 1777638347 | 23.33° C | 30% | 1030.2 hPa | 0 mm | - | 636 W/m² | - |
| 1777635637 | 21.67° C | 32% | 1030.8 hPa | 0 mm | - | 688 W/m² | - |
| 1777635161 | 20.56° C | 34% | 1030.8 hPa | 0 mm | - | 258 W/m² | - |
| 1777634748 | 20.56° C | 34% | 1030.8 hPa | 0 mm | - | 258 W/m² | - |
| 1777633836 | 21.11° C | 33% | 1031.1 hPa | 0 mm | - | 715 W/m² | - |
| 1777632041 | 20.56° C | 33% | 1031.3 hPa | 0 mm | - | 696 W/m² | - |
| 1777631128 | 20° C | 35% | 1031.8 hPa | 0 mm | - | 719 W/m² | - |
| 1777630226 | 21.11° C | 35% | 1031.7 hPa | 0 mm | - | 702 W/m² | - |
| 1777629325 | 20.56° C | 35% | 1031.8 hPa | 0 mm | - | 696 W/m² | - |
| 1777628423 | 20° C | 36% | 1032 hPa | 0 mm | - | 692 W/m² | - |
| 1777627518 | 18.89° C | 39% | 1032.1 hPa | 0 mm | - | 673 W/m² | - |
| 1777626616 | 18.89° C | 38% | 1032.2 hPa | 0 mm | - | 659 W/m² | - |
| 1777625719 | 18.33° C | 43% | 1032.2 hPa | 0 mm | - | 643 W/m² | - |
| 1777624812 | 17.78° C | 42% | 1032 hPa | 0 mm | - | 621 W/m² | - |
| 1777623910 | 16.67° C | 47% | 1032.3 hPa | 0 mm | - | 597 W/m² | - |
| 1777623001 | 15° C | 50% | 1032.4 hPa | 0 mm | - | 568 W/m² | - |
| 1777622101 | 13.89° C | 53% | 1032.5 hPa | 0 mm | - | 543 W/m² | - |
| 1777621206 | 12.78° C | 56% | 1032.8 hPa | 0 mm | - | 509 W/m² | - |
| 1777620299 | 11.67° C | 60% | 1032.6 hPa | 0 mm | - | 471 W/m² | - |
| 1777619401 | 10.56° C | 61% | 1032.7 hPa | 0 mm | - | 436 W/m² | - |
| 1777618492 | 9.44° C | 65% | 1032.7 hPa | 0 mm | - | 398 W/m² | - |
* Rain latest hour (hover to see other rain measurements)
** Current wind speed in m/s (hover to see current wind gust speed)